Weather History for Huntsville Madison, AL

Change the Weather History Date:

Wednesday, November 21, 2012

  Actual Average (KHSV) Record (KHSV)
Temperature  
Mean Temperature 52 °F 51 °F  
Max Temperature 66 °F 61 °F 78 °F (1942)
Min Temperature 39 °F 40 °F 17 °F (1937)
Degree Days  
Heating Degree Days 12 14  
Month to date heating degree days 232  
Since 1 July heating degree days 383  
Cooling Degree Days 0 0  
Month to date cooling degree days 7  
Year to date cooling degree days 1947  
Growing Degree Days 2 (Base 50)    
Moisture  
Dew Point 40 °F    
Average Humidity 70    
Maximum Humidity 93    
Minimum Humidity 37    
Precipitation  
Precipitation 0.00 in 0.18 in 1.98 in (1977)
Month to date precipitation 3.25  
Year to date precipitation 46.88  
Snow  
Snow 0.00 in - - ()
Month to date snowfall  
Since 1 July snowfall  
Since 1 September snowfall  
Snow Depth -    
Sea Level Pressure  
Sea Level Pressure 30.17 in    
Wind  
Wind Speed 2 mph (North)    
Max Wind Speed 9 mph    
Max Gust Speed -    
Visibility 9 miles    
Events      
T = Trace of Precipitation, MM = Missing Value Source: NWS Daily Summary

Daily Weather History Graph

Daily Weather History Graph

Search for Another Location

Airport:

Trip Planner

Search our weather history database for the weather conditions in past years. The results will help you decide how hot, cold, wet, or windy it might be!

Date:

Astronomy

Nov. 21, 2012 Rise Set
Actual Time 6:26 AM CST 4:37 PM CST
Civil Twilight 5:59 AM CST 5:04 PM CST
Nautical Twilight 5:28 AM CST 5:35 PM CST
Astronomical Twilight 4:58 AM CST 6:05 PM CST
Moon 12:40 PM CST (11/21) No Moon Set
Length of Visible Light 11h 05m
Length of Day
10h 10m
First Quarter, 62% of the Moon is Illuminated
Nov 21
First Quarter
Nov 28
Full
Dec 6
Last Quarter
Dec 13
New
Dec 19
First Quarter

Hourly Weather History & Observations

Time (CST) Temp. Dew Point Humidity Pressure Visibility Wind Dir Wind Speed Gust Speed Precip Events Conditions
12:15 AM 50.0 °F 44.6 °F 82% 30.12 in 10.0 mi Calm Calm - N/A   Overcast
12:35 AM 50.0 °F 44.6 °F 82% 30.12 in 10.0 mi Calm Calm - N/A   Overcast
12:55 AM 48.2 °F 42.8 °F 82% 30.12 in 10.0 mi Calm Calm - N/A   Scattered Clouds
1:15 AM 46.4 °F 42.8 °F 87% 30.12 in 10.0 mi Calm Calm - N/A   Mostly Cloudy
1:35 AM 46.4 °F 42.8 °F 87% 30.12 in 10.0 mi Calm Calm - N/A   Overcast
1:55 AM 46.4 °F 42.8 °F 87% 30.12 in 10.0 mi Calm Calm - N/A   Scattered Clouds
2:15 AM 46.4 °F 42.8 °F 87% 30.12 in 10.0 mi Calm Calm - N/A   Scattered Clouds
2:35 AM 44.6 °F 41.0 °F 87% 30.12 in 10.0 mi Calm Calm - N/A   Scattered Clouds
2:55 AM 44.6 °F 41.0 °F 87% 30.12 in 10.0 mi Calm Calm - N/A   Clear
3:15 AM 42.8 °F 39.2 °F 87% 30.12 in 10.0 mi Calm Calm - N/A   Clear
3:35 AM 42.8 °F 39.2 °F 87% 30.12 in 10.0 mi Calm Calm - N/A   Clear
3:55 AM 41.0 °F 37.4 °F 87% 30.12 in 10.0 mi Calm Calm - N/A   Clear
4:15 AM 41.0 °F 37.4 °F 87% 30.13 in 10.0 mi Calm Calm - N/A   Clear
4:35 AM 41.0 °F 37.4 °F 87% 30.13 in 7.0 mi Calm Calm - N/A   Clear
4:55 AM 41.0 °F 37.4 °F 87% 30.14 in 10.0 mi Calm Calm - N/A   Clear
5:15 AM 41.0 °F 37.4 °F 87% 30.14 in 7.0 mi Calm Calm - N/A   Clear
5:35 AM 39.2 °F 37.4 °F 93% 30.15 in 10.0 mi Calm Calm - N/A   Clear
5:55 AM 39.2 °F 37.4 °F 93% 30.16 in 7.0 mi Calm Calm - N/A   Clear
6:15 AM 39.2 °F 37.4 °F 93% 30.17 in 10.0 mi Calm Calm - N/A   Clear
6:35 AM 39.2 °F 35.6 °F 87% 30.17 in 7.0 mi Calm Calm - N/A   Clear
6:55 AM 39.2 °F 35.6 °F 87% 30.18 in 10.0 mi Calm Calm - N/A   Clear
7:15 AM 39.2 °F 35.6 °F 87% 30.19 in 7.0 mi Calm Calm - N/A   Clear
7:35 AM 42.8 °F 39.2 °F 87% 30.19 in 10.0 mi Calm Calm - N/A   Clear
7:55 AM 44.6 °F 42.8 °F 93% 30.19 in 10.0 mi Calm Calm - N/A   Clear
8:15 AM 46.4 °F 42.8 °F 87% 30.19 in 10.0 mi Calm Calm - N/A   Clear
8:35 AM 50.0 °F 42.8 °F 76% 30.19 in 10.0 mi North 3.5 mph - N/A   Clear
8:55 AM 53.6 °F 42.8 °F 67% 30.20 in 10.0 mi North 4.6 mph - N/A   Clear
9:15 AM 55.4 °F 42.8 °F 63% 30.20 in 10.0 mi North 6.9 mph - N/A   Clear
9:35 AM 57.2 °F 41.0 °F 55% 30.20 in 10.0 mi North 5.8 mph - N/A   Clear
9:55 AM 59.0 °F 42.8 °F 55% 30.20 in 10.0 mi NNW 4.6 mph - N/A   Clear
10:15 AM 59.0 °F 41.0 °F 51% 30.20 in 10.0 mi North 4.6 mph - N/A   Clear
10:35 AM 60.8 °F 41.0 °F 48% 30.20 in 10.0 mi North 3.5 mph - N/A   Clear
10:55 AM 62.6 °F 41.0 °F 45% 30.19 in 10.0 mi NNW 6.9 mph - N/A   Clear
11:15 AM 64.4 °F 41.0 °F 42% 30.19 in 10.0 mi North 8.1 mph - N/A   Clear
11:35 AM 64.4 °F 41.0 °F 42% 30.18 in 10.0 mi NNE 4.6 mph - N/A   Clear
11:55 AM 64.4 °F 41.0 °F 42% 30.18 in 10.0 mi North 9.2 mph - N/A   Clear
12:15 PM 64.4 °F 41.0 °F 42% 30.17 in 10.0 mi NNE 5.8 mph - N/A   Clear
12:35 PM 66.2 °F 41.0 °F 40% 30.17 in 10.0 mi NNW 4.6 mph - N/A   Clear
12:55 PM 66.2 °F 41.0 °F 40% 30.16 in 10.0 mi NNE 6.9 mph - N/A   Clear
1:15 PM 66.2 °F 39.2 °F 37% 30.16 in 10.0 mi NNW 6.9 mph - N/A   Clear
1:35 PM 66.2 °F 39.2 °F 37% 30.15 in 10.0 mi North 3.5 mph - N/A   Clear
1:55 PM 66.2 °F 39.2 °F 37% 30.15 in 10.0 mi Calm Calm - N/A   Clear
2:15 PM 66.2 °F 39.2 °F 37% 30.15 in 10.0 mi West 5.8 mph - N/A   Clear
2:35 PM 66.2 °F 39.2 °F 37% 30.15 in 10.0 mi NNW 8.1 mph - N/A   Clear
2:55 PM 66.2 °F 39.2 °F 37% 30.15 in 10.0 mi NNW 9.2 mph - N/A   Clear
3:15 PM 64.4 °F 39.2 °F 40% 30.15 in 10.0 mi NNW 6.9 mph - N/A   Clear
3:35 PM 64.4 °F 41.0 °F 42% 30.16 in 10.0 mi NW 5.8 mph - N/A   Clear
3:55 PM 62.6 °F 41.0 °F 45% 30.16 in 10.0 mi NNW 5.8 mph - N/A   Clear
4:15 PM 60.8 °F 42.8 °F 52% 30.16 in 10.0 mi North 5.8 mph - N/A   Clear
4:35 PM 59.0 °F 42.8 °F 55% 30.17 in 10.0 mi Calm Calm - N/A   Clear
4:55 PM 57.2 °F 42.8 °F 59% 30.17 in 10.0 mi North 3.5 mph - N/A   Clear
5:15 PM 55.4 °F 41.0 °F 58% 30.17 in 10.0 mi North 3.5 mph - N/A   Clear
5:35 PM 51.8 °F 41.0 °F 67% 30.18 in 10.0 mi NNW 4.6 mph - N/A   Clear
5:55 PM 53.6 °F 42.8 °F 67% 30.18 in 10.0 mi North 4.6 mph - N/A   Clear
6:15 PM 51.8 °F 41.0 °F 67% 30.19 in 10.0 mi Calm Calm - N/A   Clear
6:35 PM 50.0 °F 41.0 °F 71% 30.19 in 10.0 mi NNW 3.5 mph - N/A   Clear
6:55 PM 51.8 °F 41.0 °F 67% 30.19 in 10.0 mi Calm Calm - N/A   Clear
7:15 PM 51.8 °F 41.0 °F 67% 30.19 in 7.0 mi Calm Calm - N/A   Clear
7:35 PM 50.0 °F 39.2 °F 66% 30.19 in 10.0 mi Calm Calm - N/A   Clear
7:55 PM 46.4 °F 39.2 °F 76% 30.20 in 10.0 mi Calm Calm - N/A   Clear
8:15 PM 44.6 °F 39.2 °F 81% 30.20 in 10.0 mi Calm Calm - N/A   Clear
8:35 PM 44.6 °F 37.4 °F 76% 30.20 in 10.0 mi Calm Calm - N/A   Clear
8:55 PM 44.6 °F 37.4 °F 76% 30.20 in 10.0 mi Calm Calm - N/A   Clear
9:15 PM 42.8 °F 37.4 °F 81% 30.21 in 7.0 mi Calm Calm - N/A   Clear
9:35 PM 42.8 °F 37.4 °F 81% 30.20 in 7.0 mi Calm Calm - N/A   Clear
9:55 PM 42.8 °F 39.2 °F 87% 30.21 in 7.0 mi Calm Calm - N/A   Clear
10:15 PM 41.0 °F 37.4 °F 87% 30.21 in 7.0 mi Calm Calm - N/A   Clear
10:35 PM 41.0 °F 37.4 °F 87% 30.21 in 7.0 mi Calm Calm - N/A   Clear
10:55 PM 41.0 °F 37.4 °F 87% 30.21 in 7.0 mi Calm Calm - N/A   Clear
11:15 PM 41.0 °F 37.4 °F 87% 30.20 in 7.0 mi Calm Calm - N/A   Clear
11:35 PM 41.0 °F 37.4 °F 87% 30.20 in 7.0 mi Calm Calm - N/A   Clear
11:55 PM 41.0 °F 35.6 °F 81% 30.20 in 7.0 mi Calm Calm - N/A   Clear